OK,228,30,790,228,2014-10-01T01:40:00,0,28072560,203583
OK,228,30,790,228,2014-10-01T01:45:00,0,28073007,203583
OK,228,30,790,228,2014-10-01T01:50:00,0,28073456,203583
OK,228,30,790,228,2014-10-01T01:55:00,0,28073775,203583
OK,228,30,790,228,2014-10-01T02:00:00,0,28074222,203583
OK,228,30,790,228,2014-10-01T02:05:00,0,28074665,203583
OK,228,30,790,228,2014-10-01T02:15:00,0,28075111,203583
OK,228,30,790,228,2014-10-01T02:20:00,0,28075560,203583
OK,228,30,790,228,2014-10-01T02:30:00,0,28076392,203583
OK,228,30,790,228,2014-10-01T02:35:00,0,28076841,203583
OK,228,30,790,228,2014-10-01T02:40:00,0,28077290,203583
OK,228,30,790,228,2014-10-01T02:45:00,0,28078142,203583
OK,228,30,790,228,2014-10-01T02:55:00,0,28078591,203583
OK,228,30,790,228,2014-10-01T03:00:00,0,28079036,203583
OK,228,30,790,228,2014-10-01T03:05:00,0,28079484,203583
OK,228,30,790,228,2014-10-01T03:10:00,0,28079927,203583
OK,228,30,790,228,2014-10-01T03:20:00,0,28080710,203583
OK,228,30,790,228,2014-10-01T03:25:00,0,28081159,203583
OK,228,30,790,228,2014-10-01T03:30:00,0,28081607,203583
OK,228,30,790,228,2014-10-01T03:35:00,0,28082055,203583
OK,228,30,790,228,2014-10-01T03:40:00,0,28082504,203583
OK,228,30,790,228,2014-10-01T03:50:00,0,28083369,203583
OK,228,30,790,228,2014-10-01T03:55:00,0,28083818,203583
OK,228,30,790,228,2014-10-01T04:00:00,0,28084267,203583
OK,228,30,790,228,2014-10-01T04:05:00,0,28084708,203583
OK,228,30,790,228,2014-10-01T04:10:00,0,28085133,203583
OK,228,30,790,228,2014-10-01T04:15:00,0,28085582,203583
OK,228,30,790,228,2014-10-01T04:20:00,0,28086027,203583
OK,228,30,790,228,2014-10-01T04:25:00,0,28086476,203583
OK,228,30,790,228,2014-10-01T04:30:00,0,28086918,203583
OK,228,30,790,228,2014-10-01T04:35:00,0,28087367,203583
OK,228,30,790,228,2014-10-01T04:40:00,0,28087812,203583
OK,228,30,790,228,2014-10-01T04:45:00,0,28088261,203583
OK,228,30,790,228,2014-10-01T04:50:00,0,28088685,203583
OK,228,30,790,228,2014-10-01T04:55:00,0,28089130,203583
OK,228,30,790,228,2014-10-01T05:00:00,0,28089564,203583
OK,228,30,790,228,2014-10-01T05:05:00,0,28090013,203583
OK,228,30,790,228,2014-10-01T05:10:00,0,28090462,203583
OK,228,30,790,228,2014-10-01T05:15:00,0,28090806,203583
OK,228,30,790,228,2014-10-01T05:20:00,0,28091255,203583
OK,228,30,790,228,2014-10-01T05:30:00,0,28092121,203583
OK,228,30,790,228,2014-10-01T05:35:00,0,28092569,203583
OK,477,14,790,477,2014-10-01T05:40:00,2,28093014,203583
OK,211,32,790,211,2014-10-01T05:50:00,1,28093886,203583
OK,211,32,790,211,2014-10-01T06:00:00,0,28094743,203583
OK,211,32,790,211,2014-10-01T06:05:00,0,28095191,203583
OK,168,40,790,168,2014-10-01T06:10:00,1,28095638,203583
OK,168,40,790,168,2014-10-01T06:15:00,1,28096078,203583
OK,168,40,790,168,2014-10-01T06:20:00,0,28096500,203583
OK,168,40,790,168,2014-10-01T06:25:00,0,28096949,203583
OK,168,40,790,168,2014-10-01T06:30:00,0,28097383,203583
OK,168,40,790,168,2014-10-01T06:35:00,0,28097832,203583
OK,168,40,790,168,2014-10-01T06:40:00,0,28098281,203583
OK,168,40,790,168,2014-10-01T06:45:00,0,28098718,203583
OK,168,40,790,168,2014-10-01T06:50:00,0,28099162,203583
OK,168,40,790,168,2014-10-01T07:00:00,0,28099953,203583
OK,168,40,790,168,2014-10-01T07:10:00,0,28100709,203583
OK,168,40,790,168,2014-10-01T07:20:00,0,28101529,203583
OK,648,10,790,648,2014-10-01T07:25:00,1,28101978,203583
OK,648,10,790,648,2014-10-01T07:30:00,1,28102414,203583
OK,174,39,790,174,2014-10-01T07:35:00,1,28102863,203583
OK,174,39,790,174,2014-10-01T07:40:00,0,28103290,203583
OK,174,39,790,174,2014-10-01T07:45:00,0,28103737,203583
OK,174,39,790,174,2014-10-01T07:50:00,0,28104182,203583
OK,174,39,790,174,2014-10-01T07:55:00,0,28104627,203583
OK,174,39,790,174,2014-10-01T08:00:00,0,28105066,203583
OK,174,39,790,174,2014-10-01T08:05:00,0,28105513,203583
OK,526,13,790,526,2014-10-01T08:10:00,1,28105953,203583
OK,526,13,790,526,2014-10-01T08:15:00,1,28106401,203583
OK,526,13,790,526,2014-10-01T08:20:00,0,28107228,203583
OK,526,13,790,526,2014-10-01T08:30:00,0,28107677,203583
OK,526,13,790,526,2014-10-01T08:40:00,0,28108565,203583
OK,189,36,790,189,2014-10-01T08:50:00,1,28109442,203583
OK,250,27,790,250,2014-10-01T09:00:00,1,28110234,203583
OK,157,43,790,157,2014-10-01T09:10:00,1,28111106,203583
OK,157,43,790,157,2014-10-01T09:20:00,0,28111984,203583
OK,157,43,790,157,2014-10-01T09:30:00,0,28112774,203583
OK,157,43,790,157,2014-10-01T09:35:00,0,28113647,203583
OK,157,43,790,157,2014-10-01T09:40:00,0,28114084,203583
OK,157,43,790,157,2014-10-01T09:45:00,0,28114528,203583
OK,151,45,790,151,2014-10-01T09:50:00,1,28114886,203583
OK,151,45,790,151,2014-10-01T10:00:00,0,28115331,203583
OK,151,45,790,151,2014-10-01T10:10:00,0,28116192,203583
OK,151,45,790,151,2014-10-01T10:20:00,0,28117049,203583
OK,151,45,790,151,2014-10-01T10:30:00,0,28117923,203583
OK,151,45,790,151,2014-10-01T10:35:00,0,28118816,203583
OK,151,45,790,151,2014-10-01T10:40:00,0,28119261,203583
OK,199,34,790,199,2014-10-01T10:45:00,1,28119708,203583
OK,199,34,790,199,2014-10-01T10:50:00,1,28120155,203583
OK,199,34,790,199,2014-10-01T11:00:00,0,28120604,203583
OK,199,34,790,199,2014-10-01T11:05:00,0,28121436,203583
OK,199,34,790,199,2014-10-01T11:10:00,0,28121877,203583
OK,199,34,790,199,2014-10-01T11:15:00,0,28122323,203583
OK,199,34,790,199,2014-10-01T11:20:00,0,28122766,203583
OK,199,34,790,199,2014-10-01T11:30:00,0,28123213,203583
OK,199,34,790,199,2014-10-01T11:40:00,0,28124094,203583
OK,199,34,790,199,2014-10-01T11:50:00,0,28124945,203583
OK,199,34,790,199,2014-10-01T11:55:00,0,28125823,203583
OK,199,34,790,199,2014-10-01T12:00:00,0,28126179,203583
OK,199,34,790,199,2014-10-01T12:05:00,0,28126624,203583
OK,199,34,790,199,2014-10-01T12:10:00,0,28127073,203583
OK,199,34,790,199,2014-10-01T12:20:00,0,28127522,203583
OK,199,34,790,199,2014-10-01T12:30:00,0,28128399,203583
OK,199,34,790,199,2014-10-01T12:35:00,0,28129283,203583
OK,199,34,790,199,2014-10-01T12:40:00,0,28129718,203583
OK,199,34,790,199,2014-10-01T12:45:00,0,28130166,203583
OK,199,34,790,199,2014-10-01T12:50:00,0,28130598,203583
OK,199,34,790,199,2014-10-01T12:55:00,0,28131043,203583
OK,199,34,790,199,2014-10-01T13:00:00,0,28131483,203583
OK,199,34,790,199,2014-10-01T13:05:00,0,28131929,203583
OK,172,39,790,172,2014-10-01T13:10:00,2,28132368,203583
OK,172,39,790,172,2014-10-01T13:15:00,0,28132814,203583
OK,172,39,790,172,2014-10-01T13:20:00,0,28133252,203583
OK,172,39,790,172,2014-10-01T13:25:00,0,28133701,203583
OK,175,39,790,175,2014-10-01T13:30:00,1,28134140,203583
OK,175,39,790,175,2014-10-01T13:35:00,1,28134589,203583
OK,175,39,790,175,2014-10-01T13:40:00,0,28135009,203583
OK,175,39,790,175,2014-10-01T13:45:00,0,28135457,203583
OK,175,39,790,175,2014-10-01T13:50:00,0,28135894,203583
OK,251,27,790,251,2014-10-01T13:55:00,2,28136343,203583
OK,216,31,790,216,2014-10-01T14:00:00,1,28136783,203583
OK,216,31,790,216,2014-10-01T14:05:00,0,28137232,203583
OK,216,31,790,216,2014-10-01T14:10:00,0,28137667,203583
OK,216,31,790,216,2014-10-01T14:15:00,0,28138115,203583
OK,216,31,790,216,2014-10-01T14:20:00,0,28138544,203583
OK,216,31,790,216,2014-10-01T14:25:00,0,28138992,203583
OK,214,32,790,214,2014-10-01T14:30:00,1,28139404,203583
OK,214,32,790,214,2014-10-01T14:35:00,0,28139852,203583
OK,214,32,790,214,2014-10-01T14:40:00,0,28140295,203583
OK,214,32,790,214,2014-10-01T14:45:00,0,28140743,203583
OK,214,32,790,214,2014-10-01T14:50:00,0,28141171,203583
OK,230,29,790,230,2014-10-01T15:00:00,1,28141618,203583
OK,230,29,790,230,2014-10-01T15:10:00,0,28142495,203583
OK,216,31,790,216,2014-10-01T15:15:00,2,28143371,203583
OK,216,31,790,216,2014-10-01T15:20:00,2,28143819,203583
OK,216,31,790,216,2014-10-01T15:30:00,0,28144268,203583
OK,216,31,790,216,2014-10-01T15:35:00,0,28145103,203583
OK,216,31,790,216,2014-10-01T15:40:00,0,28145552,203583
OK,216,31,790,216,2014-10-01T15:45:00,0,28146001,203583
OK,216,31,790,216,2014-10-01T15:55:00,0,28146450,203583
OK,216,31,790,216,2014-10-01T16:00:00,0,28147305,203583
OK,216,31,790,216,2014-10-01T16:10:00,0,28147751,203583
OK,216,31,790,216,2014-10-01T16:15:00,0,28148601,203583
OK,208,33,790,208,2014-10-01T16:20:00,1,28149043,203583
OK,208,33,790,208,2014-10-01T16:30:00,0,28149489,203583
OK,208,33,790,208,2014-10-01T16:40:00,0,28150364,203583
OK,208,33,790,208,2014-10-01T16:50:00,0,28151231,203583
OK,208,33,790,208,2014-10-01T16:55:00,0,28151680,203583
OK,208,33,790,208,2014-10-01T17:00:00,0,28152129,203583
OK,208,33,790,208,2014-10-01T17:05:00,0,28152575,203583
OK,208,33,790,208,2014-10-01T17:10:00,0,28153022,203583
OK,208,33,790,208,2014-10-01T17:20:00,0,28153471,203583
OK,208,33,790,208,2014-10-01T17:25:00,0,28154330,203583
OK,208,33,790,208,2014-10-01T17:30:00,0,28154777,203583
OK,208,33,790,208,2014-10-01T17:40:00,0,28155221,203583
OK,208,33,790,208,2014-10-01T17:45:00,0,28156087,203583
OK,208,33,790,208,2014-10-01T17:55:00,0,28156536,203583
OK,208,33,790,208,2014-10-01T18:00:00,0,28157411,203583
OK,208,33,790,208,2014-10-01T18:05:00,0,28157852,203583
OK,208,33,790,208,2014-10-01T18:10:00,0,28158298,203583
OK,208,33,790,208,2014-10-01T18:15:00,0,28158743,203583
OK,208,33,790,208,2014-10-01T18:20:00,0,28159188,203583
OK,208,33,790,208,2014-10-01T18:25:00,0,28159524,203583
OK,208,33,790,208,2014-10-01T18:30:00,0,28159972,203583
OK,208,33,790,208,2014-10-01T18:40:00,0,28160421,203583
OK,208,33,790,208,2014-10-01T18:50:00,0,28161308,203583
OK,208,33,790,208,2014-10-01T19:00:00,0,28162174,203583
OK,208,33,790,208,2014-10-01T19:05:00,0,28163009,203583
OK,208,33,790,208,2014-10-01T19:10:00,0,28163455,203583
OK,208,33,790,208,2014-10-01T19:15:00,0,28163904,203583
OK,208,33,790,208,2014-10-01T19:20:00,0,28164338,203583
OK,208,33,790,208,2014-10-01T19:30:00,0,28164784,203583
OK,208,33,790,208,2014-10-01T19:35:00,0,28165657,203583
OK,208,33,790,208,2014-10-01T19:40:00,0,28166098,203583
OK,208,33,790,208,2014-10-01T19:45:00,0,28166460,203583
OK,208,33,790,208,2014-10-01T19:50:00,0,28166909,203583
OK,208,33,790,208,2014-10-01T19:55:00,0,28167338,203583
OK,208,33,790,208,2014-10-01T20:00:00,0,28167772,203583
OK,208,33,790,208,2014-10-01T20:05:00,0,28168220,203583
OK,208,33,790,208,2014-10-01T20:10:00,0,28168665,203583
OK,208,33,790,208,2014-10-01T20:15:00,0,28169114,203583
OK,208,33,790,208,2014-10-01T20:20:00,0,28169562,203583
OK,208,33,790,208,2014-10-01T20:25:00,0,28169988,203583
OK,208,33,790,208,2014-10-01T20:30:00,0,28170433,203583
OK,208,33,790,208,2014-10-01T20:35:00,0,28170881,203583
OK,208,33,790,208,2014-10-01T20:40:00,0,28171318,203583
OK,208,33,790,208,2014-10-01T20:45:00,0,28171764,203583
OK,208,33,790,208,2014-10-01T20:50:00,0,28172212,203583
OK,208,33,790,208,2014-10-01T20:55:00,0,28172658,203583
OK,208,33,790,208,2014-10-01T21:00:00,0,28173104,203583
OK,208,33,790,208,2014-10-01T21:05:00,0,28173553,203583
OK,208,33,790,208,2014-10-01T21:10:00,0,28173994,203583
OK,208,33,790,208,2014-10-01T21:15:00,0,28174443,203583
OK,208,33,790,208,2014-10-01T21:20:00,0,28174869,203583
OK,208,33,790,208,2014-10-01T21:25:00,0,28175265,203583
OK,208,33,790,208,2014-10-01T21:30:00,0,28175714,203583
OK,208,33,790,208,2014-10-01T21:35:00,0,28176163,203583
OK,208,33,790,208,2014-10-01T21:45:00,0,28176612,203583
OK,208,33,790,208,2014-10-01T21:50:00,0,28177408,203583
OK,208,33,790,208,2014-10-01T21:55:00,0,28177854,203583
OK,208,33,790,208,2014-10-01T22:00:00,0,28178303,203583
OK,208,33,790,208,2014-10-01T22:05:00,0,28178750,203583
OK,208,33,790,208,2014-10-01T22:10:00,0,28179187,203583
OK,208,33,790,208,2014-10-01T22:15:00,0,28179627,203583
OK,208,33,790,208,2014-10-01T22:20:00,0,28180074,203583
OK,208,33,790,208,2014-10-01T22:25:00,0,28180473,203583
OK,208,33,790,208,2014-10-01T22:30:00,0,28180921,203583
OK,208,33,790,208,2014-10-01T22:35:00,0,28181345,203583
OK,208,33,790,208,2014-10-01T22:40:00,0,28181793,203583
OK,208,33,790,208,2014-10-01T22:45:00,0,28182240,203583
OK,208,33,790,208,2014-10-01T22:50:00,0,28182689,203583
OK,208,33,790,208,2014-10-01T22:55:00,0,28183106,203583
OK,208,33,790,208,2014-10-01T23:00:00,0,28183539,203583
OK,208,33,790,208,2014-10-01T23:05:00,0,28183984,203583
OK,208,33,790,208,2014-10-01T23:10:00,0,28184433,203583
OK,208,33,790,208,2014-10-01T23:15:00,0,28184868,203583
OK,208,33,790,208,2014-10-01T23:20:00,0,28185316,203583
OK,208,33,790,208,2014-10-01T23:25:00,0,28185747,203583
OK,208,33,790,208,2014-10-01T23:30:00,0,28186139,203583
OK,208,33,790,208,2014-10-01T23:40:00,0,28186986,203583
OK,208,33,790,208,2014-10-01T23:45:00,0,28187428,203583
OK,208,33,790,208,2014-10-01T23:50:00,0,28187877,203583
OK,208,33,790,208,2014-10-01T23:55:00,0,28188318,203583
OK,208,33,790,208,2014-10-02T00:00:00,0,28188754,203583
OK,208,33,790,208,2014-10-02T00:10:00,0,28189203,203583
OK,208,33,790,208,2014-10-02T00:20:00,0,28190074,203583
OK,208,33,790,208,2014-10-02T00:25:00,0,28190876,203583
OK,208,33,790,208,2014-10-02T00:35:00,0,28191325,203583
OK,208,33,790,208,2014-10-02T00:40:00,0,28192080,203583
OK,208,33,790,208,2014-10-02T00:45:00,0,28192515,203583
OK,208,33,790,208,2014-10-02T00:50:00,0,28192957,203583
OK,208,33,790,208,2014-10-02T00:55:00,0,28193324,203583
OK,208,33,790,208,2014-10-02T01:00:00,0,28193773,203583
OK,208,33,790,208,2014-10-02T01:10:00,0,28194222,203583
OK,208,33,790,208,2014-10-02T01:15:00,0,28194671,203583
OK,208,33,790,208,2014-10-02T01:20:00,0,28195356,203583
OK,208,33,790,208,2014-10-02T01:30:00,0,28195805,203583
OK,208,33,790,208,2014-10-02T01:35:00,0,28196538,203583
OK,208,33,790,208,2014-10-02T01:40:00,0,28196965,203583
OK,208,33,790,208,2014-10-02T01:45:00,0,28197410,203583
OK,208,33,790,208,2014-10-02T01:50:00,0,28197858,203583
OK,208,33,790,208,2014-10-02T01:55:00,0,28198306,203583
OK,208,33,790,208,2014-10-02T02:05:00,0,28198755,203583
OK,208,33,790,208,2014-10-02T02:10:00,0,28199569,203583
OK,208,33,790,208,2014-10-02T02:15:00,0,28200011,203583
OK,208,33,790,208,2014-10-02T02:20:00,0,28200454,203583
OK,208,33,790,208,2014-10-02T02:25:00,0,28200903,203583
OK,208,33,790,208,2014-10-02T02:30:00,0,28201334,203583
OK,208,33,790,208,2014-10-02T02:45:00,0,28202232,203583
OK,208,33,790,208,2014-10-02T02:50:00,0,28202674,203583
OK,208,33,790,208,2014-10-02T02:55:00,0,28203122,203583
OK,208,33,790,208,2014-10-02T03:00:00,0,28203557,203583
OK,208,33,790,208,2014-10-02T03:10:00,0,28204006,203583
OK,208,33,790,208,2014-10-02T03:25:00,0,28204455,203583
OK,208,33,790,208,2014-10-02T03:35:00,0,28204904,203583
OK,208,33,790,208,2014-10-02T03:40:00,0,28205779,203583
OK,208,33,790,208,2014-10-02T03:45:00,0,28206162,203583
OK,208,33,790,208,2014-10-02T03:55:00,0,28207060,203583
OK,208,33,790,208,2014-10-02T04:00:00,0,28207483,203583
OK,208,33,790,208,2014-10-02T04:05:00,0,28207928,203583
OK,208,33,790,208,2014-10-02T04:10:00,0,28208362,203583
OK,208,33,790,208,2014-10-02T04:15:00,0,28208804,203583
OK,208,33,790,208,2014-10-02T04:20:00,0,28209244,203583
OK,208,33,790,208,2014-10-02T04:30:00,0,28209691,203583
OK,208,33,790,208,2014-10-02T04:40:00,0,28210563,203583
OK,208,33,790,208,2014-10-02T04:45:00,0,28211432,203583
OK,208,33,790,208,2014-10-02T04:50:00,0,28211810,203583
OK,208,33,790,208,2014-10-02T05:00:00,0,28212259,203583
OK,208,33,790,208,2014-10-02T05:05:00,0,28212705,203583
OK,208,33,790,208,2014-10-02T05:10:00,0,28213137,203583
OK,208,33,790,208,2014-10-02T05:15:00,0,28213586,203583
OK,208,33,790,208,2014-10-02T05:20:00,0,28214024,203583
OK,208,33,790,208,2014-10-02T05:30:00,0,28214886,203583
OK,208,33,790,208,2014-10-02T05:40:00,0,28215751,203583
OK,208,33,790,208,2014-10-02T05:45:00,0,28216532,203583
OK,208,33,790,208,2014-10-02T05:50:00,0,28216979,203583
OK,208,33,790,208,2014-10-02T05:55:00,0,28217426,203583
OK,208,33,790,208,2014-10-02T06:00:00,0,28217870,203583
OK,208,33,790,208,2014-10-02T06:10:00,0,28218314,203583
OK,208,33,790,208,2014-10-02T06:15:00,0,28219183,203583
OK,196,35,790,196,2014-10-02T06:20:00,2,28219558,203583
OK,220,31,790,220,2014-10-02T06:25:00,1,28220005,203583
OK,220,31,790,220,2014-10-02T06:30:00,0,28220442,203583
OK,220,31,790,220,2014-10-02T06:40:00,0,28220888,203583
OK,220,31,790,220,2014-10-02T06:45:00,0,28221555,203583
OK,220,31,790,220,2014-10-02T07:00:00,0,28222149,203583
OK,220,31,790,220,2014-10-02T07:05:00,0,28222598,203583
OK,220,31,790,220,2014-10-02T07:10:00,0,28223033,203583
OK,220,31,790,220,2014-10-02T07:15:00,0,28223465,203583
OK,220,31,790,220,2014-10-02T07:20:00,0,28223912,203583
OK,185,37,790,185,2014-10-02T07:25:00,1,28224267,203583
OK,185,37,790,185,2014-10-02T07:30:00,0,28224716,203583
OK,185,37,790,185,2014-10-02T07:40:00,0,28225165,203583
OK,185,37,790,185,2014-10-02T07:50:00,0,28226381,203583
OK,185,37,790,185,2014-10-02T08:00:00,0,28226826,203583
OK,168,40,790,168,2014-10-02T08:10:00,0,28227690,203583
OK,173,39,790,173,2014-10-02T08:20:00,0,28228498,203583
OK,173,39,790,173,2014-10-02T08:30:00,0,28229357,203583
OK,196,35,790,196,2014-10-02T08:40:00,0,28230156,203583
OK,196,35,790,196,2014-10-02T08:50:00,0,28230971,203583
OK,196,35,790,196,2014-10-02T09:00:00,0,28231843,203583
OK,196,35,790,196,2014-10-02T09:10:00,0,28232634,203583
OK,196,35,790,196,2014-10-02T09:20:00,0,28233083,203583
OK,196,35,790,196,2014-10-02T09:25:00,0,28233956,203583
OK,196,35,790,196,2014-10-02T09:30:00,0,28234293,203583
OK,196,35,790,196,2014-10-02T09:35:00,0,28234738,203583
OK,196,35,790,196,2014-10-02T09:40:00,0,28235165,203583
OK,196,35,790,196,2014-10-02T09:45:00,0,28235614,203583
OK,196,35,790,196,2014-10-02T09:50:00,0,28236059,203583
OK,196,35,790,196,2014-10-02T09:55:00,0,28236504,203583
OK,196,35,790,196,2014-10-02T10:00:00,0,28236912,203583
OK,196,35,790,196,2014-10-02T10:05:00,0,28237355,203583
OK,196,35,790,196,2014-10-02T10:10:00,0,28237803,203583
OK,196,35,790,196,2014-10-02T10:15:00,0,28238251,203583
OK,196,35,790,196,2014-10-02T10:20:00,0,28238693,203583
OK,196,35,790,196,2014-10-02T10:25:00,0,28239140,203583
OK,196,35,790,196,2014-10-02T10:30:00,0,28239571,203583
OK,196,35,790,196,2014-10-02T10:35:00,0,28240019,203583
OK,196,35,790,196,2014-10-02T10:40:00,0,28240464,203583
OK,196,35,790,196,2014-10-02T10:50:00,0,28240912,203583
OK,196,35,790,196,2014-10-02T11:00:00,0,28241792,203583
OK,161,42,790,161,2014-10-02T11:10:00,1,28242637,203583
OK,161,42,790,161,2014-10-02T11:15:00,0,28243086,203583
OK,161,42,790,161,2014-10-02T11:20:00,0,28243852,203583
OK,161,42,790,161,2014-10-02T11:25:00,0,28244279,203583
OK,161,42,790,161,2014-10-02T11:30:00,0,28244727,203583
OK,235,29,790,235,2014-10-02T11:35:00,0,28245176,203583
OK,235,29,790,235,2014-10-02T11:40:00,0,28245588,203583
OK,235,29,790,235,2014-10-02T11:45:00,0,28246031,203583
OK,235,29,790,235,2014-10-02T11:50:00,0,28246468,203583
OK,235,29,790,235,2014-10-02T11:55:00,0,28246917,203583
OK,235,29,790,235,2014-10-02T12:00:00,0,28247363,203583
OK,235,29,790,235,2014-10-02T12:05:00,0,28247795,203583
OK,235,29,790,235,2014-10-02T12:10:00,0,28248242,203583
OK,235,29,790,235,2014-10-02T12:20:00,0,28248690,203583
OK,235,29,790,235,2014-10-02T12:25:00,0,28249561,203583
OK,235,29,790,235,2014-10-02T12:30:00,0,28249982,203583
OK,201,34,790,201,2014-10-02T12:35:00,1,28250378,203583
OK,235,29,790,235,2014-10-02T12:45:00,1,28251158,203583
OK,235,29,790,235,2014-10-02T13:20:00,0,28251703,203583
OK,253,27,790,253,2014-10-02T13:30:00,1,28252287,203583
OK,253,27,790,253,2014-10-02T13:35:00,0,28252729,203583
OK,253,27,790,253,2014-10-02T13:40:00,0,28253146,203583
OK,253,27,790,253,2014-10-02T13:45:00,0,28253595,203583
OK,253,27,790,253,2014-10-02T13:50:00,0,28254001,203583
OK,253,27,790,253,2014-10-02T13:55:00,0,28254321,203583
OK,321,21,790,321,2014-10-02T14:10:00,1,28254898,203583
OK,321,21,790,321,2014-10-02T14:15:00,0,28255347,203583
OK,321,21,790,321,2014-10-02T14:20:00,0,28255775,203583
OK,321,21,790,321,2014-10-02T14:25:00,0,28256224,203583
OK,405,16,790,405,2014-10-02T14:30:00,1,28256652,203583
OK,296,23,790,296,2014-10-02T14:35:00,3,28257101,203583
OK,307,22,790,307,2014-10-02T14:40:00,2,28257542,203583
OK,384,17,790,384,2014-10-02T14:45:00,2,28257990,203583
OK,426,16,790,426,2014-10-02T14:50:00,0,28258423,203583
OK,426,16,790,426,2014-10-02T14:55:00,0,28258869,203583
OK,426,16,790,426,2014-10-02T15:00:00,0,28259318,203583
OK,426,16,790,426,2014-10-02T15:05:00,0,28259765,203583
OK,426,16,790,426,2014-10-02T15:10:00,0,28260198,203583
OK,426,16,790,426,2014-10-02T15:15:00,0,28260647,203583
OK,426,16,790,426,2014-10-02T15:20:00,0,28261087,203583
OK,426,16,790,426,2014-10-02T15:25:00,0,28261469,203583
OK,426,16,790,426,2014-10-02T15:30:00,0,28261899,203583
OK,426,16,790,426,2014-10-02T15:35:00,0,28262346,203583
OK,426,16,790,426,2014-10-02T15:40:00,0,28262792,203583
OK,426,16,790,426,2014-10-02T15:45:00,0,28263230,203583
OK,426,16,790,426,2014-10-02T15:50:00,0,28263671,203583
OK,426,16,790,426,2014-10-02T15:55:00,0,28264073,203583
OK,426,16,790,426,2014-10-02T16:00:00,0,28264522,203583
OK,426,16,790,426,2014-10-02T16:05:00,0,28264960,203583
OK,426,16,790,426,2014-10-02T16:10:00,0,28265400,203583
OK,426,16,790,426,2014-10-02T16:15:00,0,28265796,203583
OK,426,16,790,426,2014-10-02T16:20:00,0,28266245,203583
OK,426,16,790,426,2014-10-02T16:25:00,0,28266694,203583
OK,426,16,790,426,2014-10-02T16:30:00,0,28267017,203583
OK,426,16,790,426,2014-10-02T16:35:00,0,28267466,203583
OK,426,16,790,426,2014-10-02T16:40:00,0,28267915,203583
OK,426,16,790,426,2014-10-02T16:45:00,0,28268357,203583
OK,426,16,790,426,2014-10-02T16:50:00,0,28268806,203583
OK,426,16,790,426,2014-10-02T16:55:00,0,28269255,203583
OK,426,16,790,426,2014-10-02T17:00:00,0,28269690,203583
OK,145,47,790,145,2014-10-02T17:05:00,1,28270139,203583
OK,145,47,790,145,2014-10-02T17:10:00,1,28270573,203583
OK,145,47,790,145,2014-10-02T17:15:00,0,28271022,203583
OK,238,28,790,238,2014-10-02T17:20:00,1,28271452,203583
OK,238,28,790,238,2014-10-02T17:25:00,1,28271900,203583
OK,238,28,790,238,2014-10-02T17:30:00,0,28272336,203583
OK,238,28,790,238,2014-10-02T17:35:00,0,28272777,203583
OK,238,28,790,238,2014-10-02T17:40:00,0,28273225,203583
OK,238,28,790,238,2014-10-02T17:45:00,0,28273671,203583
OK,238,28,790,238,2014-10-02T17:55:00,0,28274120,203583
OK,307,22,790,307,2014-10-02T18:00:00,1,28274894,203583
OK,307,22,790,307,2014-10-02T18:05:00,0,28275333,203583
OK,307,22,790,307,2014-10-02T18:10:00,0,28275778,203583
OK,307,22,790,307,2014-10-02T18:15:00,0,28276224,203583
OK,307,22,790,307,2014-10-02T18:20:00,0,28276620,203583
OK,307,22,790,307,2014-10-02T18:30:00,0,28277069,203583
OK,307,22,790,307,2014-10-02T18:40:00,0,28277518,203583
OK,307,22,790,307,2014-10-02T18:45:00,0,28278315,203583
OK,307,22,790,307,2014-10-02T19:00:00,0,28278764,203583
OK,307,22,790,307,2014-10-02T19:05:00,0,28279213,203583
OK,307,22,790,307,2014-10-02T19:10:00,0,28279658,203583
OK,307,22,790,307,2014-10-02T19:15:00,0,28280099,203583
OK,307,22,790,307,2014-10-02T19:20:00,0,28280546,203583
OK,307,22,790,307,2014-10-02T19:25:00,0,28280950,203583
OK,307,22,790,307,2014-10-02T19:35:00,0,28281848,203583
OK,307,22,790,307,2014-10-02T19:40:00,0,28282279,203583
OK,307,22,790,307,2014-10-02T19:45:00,0,28282728,203583
OK,307,22,790,307,2014-10-02T19:50:00,0,28283175,203583
OK,307,22,790,307,2014-10-02T19:55:00,0,28283605,203583
OK,307,22,790,307,2014-10-02T20:00:00,0,28283975,203583
OK,307,22,790,307,2014-10-02T20:10:00,0,28284424,203583
OK,307,22,790,307,2014-10-02T20:15:00,0,28285207,203583
OK,307,22,790,307,2014-10-02T20:20:00,0,28285643,203583
OK,307,22,790,307,2014-10-02T20:25:00,0,28286058,203583
OK,307,22,790,307,2014-10-02T20:35:00,0,28286910,203583
OK,307,22,790,307,2014-10-02T20:40:00,0,28287341,203583
OK,0,0,790,0,2014-10-03T22:35:00,0,28291621,203583
OK,0,0,790,0,2014-10-03T22:40:00,0,28292070,203583
OK,0,0,790,0,2014-10-03T22:45:00,0,28292519,203583
OK,0,0,790,0,2014-10-03T22:50:00,0,28292965,203583